[[{"header":{"parameterUnit":"m.s-1","parameterCategory":2,"la1":30.2991,"la2":30.254,"lo1":-89.0895,"lo2":-89.0444,"dy":0.0017,"dx":0.0017,"nx":28,"ny":28,"refTime":"2024-07-03T21:00:00:Z","depth":"0","parameterNumber":2,"parameterNumberName":"U-component_of_CURRENTS"},"data":[0,0,0,0,0,0,0,0,0,0,0,0,0,0,0,0,0,0,0,0,0,0,0,0,0,0,0,0,0,0,0,0,0,0,0,0,0,0,0,0,0,0,0,0,0,0,0,0,0,0,0,0,0,0,0,0,0,0,-0.2848,-0.2849,0,-0.2997,-0.2999,-0.3001,-0.3223,-0.3227,-0.323,-0.3233,-0.3352,-0.3352,-0.3351,0,0,0,0,0,0,0,0,0,0,0,0,0,-0.2852,-0.285,-0.2848,-0.2849,-0.2851,-0.2996,-0.2999,-0.3001,-0.3222,-0.3227,-0.3231,-0.3235,-0.3352,-0.3352,-0.3351,0,0,0,0,0,0,0,0,0,0,0,0,0,-0.2914,-0.285,-0.2848,-0.2976,-0.2989,-0.2996,-0.2999,-0.3002,-0.3221,-0.3227,-0.3232,-0.3237,-0.3352,-0.3352,-0.3351,-0.3244,0,0,-0.3351,-0.3351,0,0,0,0,0,0,0,0,-0.291,-0.2914,-0.2956,-0.2967,-0.2981,-0.3093,-0.3044,-0.308,-0.322,-0.3137,-0.3233,-0.324,-0.3256,-0.3264,-0.3286,-0.3249,-0.3254,-0.3351,-0.3351,-0.3351,-0.335,0,0,0,0,0,0,0,-0.2905,-0.2909,-0.2911,-0.2956,-0.2972,-0.3059,-0.3073,-0.3053,-0.3167,-0.3145,-0.316,-0.3169,-0.3264,-0.3286,-0.329,-0.3256,-0.3351,-0.3351,-0.335,-0.335,-0.3214,-0.3211,0,0,0,0,0,0,-0.2867,-0.2903,-0.2906,-0.2915,-0.2953,-0.3053,-0.307,-0.3055,-0.3169,-0.319,-0.3164,-0.3178,-0.3284,-0.329,-0.3295,-0.3123,-0.3351,-0.335,-0.335,-0.3218,-0.3213,-0.321,0,0,0,0,0,0,-0.2866,-0.2864,-0.29,-0.2912,-0.2922,-0.3047,-0.3029,-0.3055,-0.3096,-0.3183,-0.3206,-0.3181,-0.3288,-0.3296,-0.328,-0.3132,-0.335,-0.335,-0.3222,-0.3216,-0.3212,-0.281,0,0,0,0,0,0,-0.2865,-0.2862,-0.2822,-0.2908,-0.292,-0.2844,-0.3025,-0.3054,-0.309,-0.3111,-0.3202,-0.322,-0.3293,-0.328,-0.328,-0.3135,-0.335,-0.3226,-0.3219,-0.3213,-0.2828,-0.2792,-0.2761,0,0,0,0,0,-0.2864,-0.2791,-0.2818,-0.2818,-0.2864,-0.2838,-0.2849,-0.2963,-0.3085,-0.3035,-0.3144,-0.3218,-0.324,-0.3275,-0.3277,-0.3128,-0.3229,-0.3221,-0.3214,-0.2843,-0.2799,-0.2762,0,0,0,0,0,0,-0.2791,-0.2808,-0.2841,-0.2782,-0.2777,-0.2873,-0.2852,-0.294,-0.299,-0.3041,-0.316,-0.3177,-0.3104,-0.3189,-0.3227,-0.3084,-0.3249,-0.3241,-0.2966,-0.2926,-0.2893,-0.2878,-0.335,0,0,0,0,0,-0.2741,-0.269,-0.2714,-0.2665,-0.2652,-0.2748,-0.2758,-0.2832,-0.2897,-0.2931,-0.2989,-0.3064,-0.3063,-0.306,-0.3078,-0.2982,-0.3035,-0.2901,-0.2867,-0.2838,-0.2834,-0.2777,-0.2736,-0.3184,-0.3184,-0.3184,0,0,-0.2702,-0.2707,-0.268,-0.2643,-0.2671,-0.2611,-0.2768,-0.2762,-0.2724,-0.2923,-0.2881,-0.2933,-0.3018,-0.2919,-0.2894,-0.2973,-0.273,-0.2828,-0.2801,-0.2814,-0.2764,-0.272,-0.268,-0.3179,-0.318,-0.318,0,0,-0.2606,-0.2592,-0.2516,-0.2482,-0.2482,-0.2513,-0.2498,-0.2549,-0.257,-0.2524,-0.2659,-0.2622,-0.2648,-0.2639,-0.2654,-0.2446,-0.2555,-0.2472,-0.2268,-0.2209,-0.217,-0.2137,-0.2091,-0.2057,-0.2451,-0.245,-0.2449,0,-0.2547,-0.248,-0.2484,-0.2402,-0.2381,-0.2454,-0.2381,-0.2364,-0.2407,-0.2406,-0.2467,-0.2474,-0.2495,-0.2391,-0.2314,-0.235,-0.2381,-0.2393,-0.2156,-0.2126,-0.2099,-0.2061,-0.2028,-0.243,-0.2432,-0.2434,-0.2436,0,-0.2405,-0.2341,-0.2289,-0.2206,-0.2159,-0.2103,-0.2082,-0.2045,-0.2094,-0.2108,-0.2024,-0.204,-0.2074,-0.2017,-0.2091,-0.1905,-0.2006,-0.2109,-0.2236,-0.2027,-0.2003,-0.1976,-0.24,-0.2408,-0.2414,-0.2419,0,0,-0.227,-0.2205,-0.2182,-0.215,-0.2067,-0.2033,-0.1914,-0.1847,-0.1834,-0.1766,-0.1722,-0.1602,-0.1665,-0.1688,-0.1734,-0.1634,-0.1395,-0.1773,-0.178,-0.1689,-0.1282,-0.1233,-0.1202,-0.1471,-0.1465,-0.1461,-0.1319,0,-0.2152,-0.2042,-0.201,-0.1879,-0.1817,-0.1815,-0.1713,-0.1664,-0.1647,-0.1596,-0.1539,-0.1506,-0.1523,-0.1538,-0.1416,-0.1463,-0.132,-0.1426,-0.1537,-0.154,-0.1488,-0.1166,-0.0945,-0.0791,-0.1294,-0.129,-0.1287,0,-0.1986,-0.1958,-0.1856,-0.1789,-0.1758,-0.1681,-0.1616,-0.1533,-0.1451,-0.1446,-0.1372,-0.1395,-0.1233,-0.1296,-0.1139,-0.1229,-0.12,-0.1188,-0.1186,-0.1273,-0.144,-0.11,-0.0726,-0.073,-0.1248,-0.1251,-0.1254,0,-0.1941,-0.182,-0.1779,-0.1741,-0.1668,-0.1627,-0.1578,-0.1503,-0.141,-0.1365,-0.1313,-0.1219,-0.1156,-0.109,-0.105,-0.1107,-0.0906,-0.1007,-0.0902,-0.0903,-0.0802,-0.0801,-0.0413,-0.0823,-0.0824,-0.0824,-0.0825,0,-0.1822,-0.1757,-0.1769,-0.1743,-0.1626,-0.1616,-0.1488,-0.1447,-0.1359,-0.1191,-0.124,-0.1079,-0.1098,-0.1004,-0.0992,-0.0847,-0.0855,-0.0782,-0.0819,-0.0654,-0.0643,-0.073,-0.0849,-0.0819,-0.082,-0.0821,-0.0822,0,-0.1724,-0.1753,-0.1651,-0.1625,-0.1596,-0.1502,-0.1349,-0.1251,-0.1246,-0.1032,-0.0997,-0.0931,-0.0817,-0.084,-0.0751,-0.074,-0.0629,-0.061,-0.0421,-0.0434,-0.0341,-0.045,-0.0318,-0.0322,-0.0434,-0.0431,-0.0429,0,-0.1671,-0.1643,-0.1552,-0.1441,-0.1403,-0.1287,-0.1172,-0.1151,-0.1022,-0.0865,-0.0722,-0.0633,-0.0428,-0.0353,-0.0375,-0.0341,-0.0459,-0.016,-0.0175,-0.02,-0.0351,-0.0529,-0.0556,0.0129,0.0136,0.0142,0.0146,0,-0.1467,-0.1444,-0.1326,-0.1188,-0.1049,-0.0911,-0.0773,-0.0675,-0.0609,-0.0478,-0.0241,-0.0094,-0.0001,0.0181,0.011,0.0098,-0.0149,-0.0046,-0.0079,0.0163,0.0006,-0.0063,-0.0154,0.0195,0.019,0.0186,0.0184,0.0182,-0.1181,-0.1049,-0.0911,-0.0766,-0.0646,-0.052,-0.0409,-0.0286,-0.0099,0.0084,0.0171,0.037,0.0601,0.0581,0.0481,0.0423,0.0229,0.0489,0.0372,0.0202,0.0199,0.0211,0.0494,0.0491,0.0488,0.0486,0.0484,0,-0.0716,-0.0629,-0.0492,-0.0299,-0.0204,-0.0254,-0.0107,-0.0034,0.0174,0.0351,0.0535,0.0824,0.1093,0.1042,0.109,0.0955,0.0728,0.0816,0.0681,0.0639,0.0728,0.0758,0.1124,0.1124,0.1124,0.1124,0.1124,0.1124,-0.0385,-0.013,-0.0161,0.0088,0.0116,0.022,0.0264,0.035,0.0442,0.0667,0.0789,0.0876,0.1063,0.1382,0.1365,0.1222,0.0919,0.0881,0.0646,0.078,0.0741,0.0703,0.0716,0.1068,0.1067,0.0679,0.0676,0.0674]},{"header":{"parameterUnit":"m.s-1","parameterCategory":2,"la1":30.2991,"la2":30.254,"lo1":-89.0895,"lo2":-89.0444,"dy":0.0017,"dx":0.0017,"nx":28,"ny":28,"refTime":"2024-07-03T21:00:00:Z","depth":"0","parameterNumber":3,"parameterNumberName":"V-component_of_CURRENTS"},"data":[0,0,0,0,0,0,0,0,0,0,0,0,0,0,0,0,0,0,0,0,0,0,0,0,0,0,0,0,0,0,0,0,0,0,0,0,0,0,0,0,0,0,0,0,0,0,0,0,0,0,0,0,0,0,0,0,0,0,0.0012,0.0015,0,0.0212,0.0213,0.0214,0.0278,0.0279,0.0279,0.0279,0.0271,0.027,0.027,0,0,0,0,0,0,0,0,0,0,0,0,0,-0.0341,-0.0336,0.0011,0.0015,0.0019,0.0212,0.0213,0.0215,0.0278,0.0279,0.0279,0.0279,0.0271,0.027,0.027,0,0,0,0,0,0,0,0,0,0,0,0,0,-0.0182,-0.0334,0.0011,0.0084,0.0093,0.0212,0.0213,0.0215,0.0278,0.0279,0.0279,0.028,0.0271,0.027,0.027,0.0255,0,0,0.0267,0.0267,0,0,0,0,0,0,0,0,-0.0191,-0.0171,0.0069,0.0079,0.009,0.0233,0.0087,0.0223,0.0278,0.0193,0.0279,0.028,0.0247,0.0248,0.0269,0.0254,0.0254,0.0267,0.0267,0.0266,0.0266,0,0,0,0,0,0,0,-0.0202,-0.0179,0.0077,0.0074,0.0086,0.01,0.0121,0.0113,0.02,0.0201,0.0209,0.0253,0.0249,0.0269,0.0268,0.0254,0.0267,0.0266,0.0266,0.0266,0.0269,0.027,0,0,0,0,0,0,-0.0197,-0.0189,0.0071,0.0084,-0.0037,0.0107,0.013,0.0175,0.0206,0.0217,0.0253,0.0256,0.027,0.0269,0.0268,0.0277,0.0266,0.0265,0.0265,0.0269,0.0269,0.027,0,0,0,0,0,0,-0.0206,-0.0176,0.0063,-0.0038,-0.0004,0.0114,0.0163,0.0179,0.0207,0.025,0.0254,0.0266,0.0271,0.0269,0.0279,0.0276,0.0265,0.0264,0.0268,0.0269,0.027,0.0277,0,0,0,0,0,0,-0.0217,-0.0181,-0.0178,-0.0037,0.0002,0.0131,0.0164,0.0183,0.024,0.0245,0.0262,0.0262,0.0271,0.028,0.0278,0.0274,0.0264,0.0267,0.0268,0.0269,0.0277,0.0279,0.028,0,0,0,0,0,-0.0231,-0.0204,-0.0179,-0.0148,0.0013,0.0133,0.0151,0.0227,0.024,0.025,0.0274,0.0262,0.0285,0.028,0.0278,0.0273,0.0267,0.0268,0.0269,0.0276,0.0278,0.028,0,0,0,0,0,0,-0.0356,-0.019,-0.016,-0.0087,0.001,0.0148,0.018,0.0223,0.0252,0.0257,0.0269,0.0271,0.0272,0.0276,0.027,0.028,0.0273,0.0274,0.0279,0.0281,0.0283,0.034,0.0263,0,0,0,0,0,-0.038,-0.032,-0.0169,-0.0118,-0.0061,0.0049,0.0098,0.016,0.0228,0.0243,0.0255,0.0268,0.0275,0.0282,0.0282,0.0288,0.0305,0.0285,0.0287,0.0289,0.0335,0.0391,0.0403,0.0274,0.0274,0.0274,0,0,-0.0415,-0.0314,-0.0283,-0.0142,-0.0057,0.0041,0.0077,0.0173,0.0231,0.0232,0.0274,0.0264,0.0276,0.0288,0.0289,0.0293,0.0316,0.029,0.0291,0.0338,0.0394,0.0407,0.0418,0.0275,0.0275,0.0275,0,0,-0.0406,-0.0357,-0.0283,-0.0198,-0.0051,0.0021,0.0048,0.0178,0.0206,0.025,0.0264,0.0274,0.0273,0.0303,0.0313,0.0327,0.0315,0.0302,0.0368,0.042,0.0432,0.0443,0.0402,0.041,0.0314,0.0314,0.0314,0,-0.046,-0.0326,-0.0253,-0.0145,-0.0064,0.0015,0.0118,0.0159,0.026,0.0292,0.0262,0.031,0.0294,0.0354,0.0358,0.0333,0.0335,0.0353,0.0425,0.0437,0.0448,0.0404,0.0413,0.0315,0.0315,0.0315,0.0315,0,-0.0369,-0.0269,-0.0214,-0.0055,0.0014,0.0117,0.0214,0.0251,0.0275,0.0327,0.0364,0.0356,0.0398,0.0373,0.0369,0.0438,0.0398,0.0409,0.0422,0.0462,0.0411,0.042,0.0315,0.0315,0.0315,0.0315,0,0,-0.0443,-0.0197,-0.0177,-0.0072,0.008,0.0166,0.0236,0.035,0.0408,0.0431,0.0501,0.0499,0.0496,0.0511,0.0493,0.0538,0.0565,0.0514,0.0516,0.0476,0.0621,0.0545,0.0546,0.0595,0.0598,0.0601,0.0525,0,-0.0382,-0.0167,-0.0076,0.0101,0.0232,0.0304,0.0366,0.0452,0.0485,0.0545,0.0554,0.0581,0.0547,0.0545,0.0595,0.0565,0.0602,0.0581,0.0589,0.0588,0.0522,0.0561,0.0661,0.0602,0.0533,0.0535,0.0536,0,-0.0312,-0.0157,0.0036,0.024,0.0294,0.0374,0.0501,0.0567,0.0646,0.0661,0.0708,0.0695,0.0729,0.0697,0.0719,0.0705,0.0688,0.067,0.0667,0.0622,0.0533,0.0568,0.062,0.0599,0.0549,0.0548,0.0547,0,-0.0341,-0.0092,0.0067,0.0143,0.0369,0.0435,0.0515,0.0607,0.0663,0.0729,0.0755,0.0796,0.078,0.0811,0.0722,0.0738,0.073,0.0741,0.0662,0.0651,0.0757,0.0751,0.0812,0.082,0.082,0.082,0.082,0,-0.0295,-0.0159,0.0073,0.0179,0.0341,0.0456,0.0576,0.065,0.0732,0.0818,0.0811,0.086,0.0819,0.0786,0.0756,0.0694,0.0748,0.0695,0.066,0.0747,0.0742,0.0744,0.0716,0.0817,0.0818,0.0818,0.0819,0,-0.0295,-0.017,0.0061,0.0303,0.0355,0.0476,0.0623,0.0698,0.0756,0.086,0.0873,0.0886,0.0844,0.0759,0.0738,0.0696,0.0668,0.0637,0.0677,0.0651,0.0587,0.0554,0.0568,0.062,0.0575,0.0573,0.0572,0,-0.0222,-0.0102,0.0154,0.0254,0.0376,0.0529,0.0611,0.0703,0.0779,0.0895,0.0948,0.091,0.0944,0.0806,0.0707,0.0605,0.0611,0.0607,0.0697,0.0617,0.0556,0.0526,0.057,0.0797,0.0797,0.0797,0.0798,0,-0.0014,0.004,0.0211,0.0382,0.0498,0.0623,0.0749,0.0797,0.0906,0.0989,0.1107,0.1142,0.1013,0.0948,0.0727,0.0689,0.0638,0.061,0.0584,0.0793,0.0721,0.0742,0.0721,0.0801,0.0801,0.08,0.08,0.08,0.0175,0.0283,0.0453,0.0586,0.0672,0.0756,0.0844,0.0939,0.1065,0.1217,0.1238,0.1327,0.1212,0.096,0.0822,0.0651,0.0661,0.0687,0.0658,0.0636,0.0706,0.0625,0.063,0.0629,0.0628,0.0627,0.0626,0,0.05,0.0532,0.0657,0.0807,0.0867,0.0871,0.0974,0.1052,0.1193,0.1304,0.1427,0.1509,0.1322,0.111,0.0845,0.0738,0.0766,0.0691,0.0749,0.0802,0.0804,0.0836,0.0821,0.0821,0.0821,0.0821,0.0821,0.0821,0.0695,0.0834,0.0817,0.0977,0.1021,0.1123,0.1165,0.1256,0.1341,0.1541,0.1652,0.1716,0.1583,0.1048,0.0753,0.0733,0.0755,0.0713,0.0675,0.0727,0.0727,0.0727,0.0755,0.0723,0.0723,0.0787,0.0787,0.0787]}],[{"header":{"parameterUnit":"m.s-1","parameterCategory":2,"la1":30.2991,"la2":30.254,"lo1":-89.0895,"lo2":-89.0444,"dy":0.0017,"dx":0.0017,"nx":28,"ny":28,"refTime":"2024-07-03T21:00:00:Z","depth":"2","parameterNumber":2,"parameterNumberName":"U-component_of_CURRENTS"},"data":[0,0,0,0,0,0,0,0,0,0,0,0,0,0,0,0,0,0,0,0,0,0,0,0,0,0,0,0,0,0,0,0,0,0,0,0,0,0,0,0,0,0,0,0,0,0,0,0,0,0,0,0,0,0,0,0,0,0,-0.1848,-0.1849,0,-0.1866,-0.1866,-0.1866,-0.1848,-0.1848,-0.1848,-0.1848,-0.193,-0.1932,-0.1935,0,0,0,0,0,0,0,0,0,0,0,0,0,-0.1627,-0.1632,-0.1848,-0.1849,-0.185,-0.1866,-0.1866,-0.1866,-0.1848,-0.1848,-0.1848,-0.1848,-0.1929,-0.1932,-0.1935,0,0,0,0,0,0,0,0,0,0,0,0,0,-0.1687,-0.1633,-0.1848,-0.1848,-0.1848,-0.1866,-0.1866,-0.1865,-0.1848,-0.1848,-0.1848,-0.1848,-0.1929,-0.1932,-0.1935,-0.1961,0,0,-0.1946,-0.1947,0,0,0,0,0,0,0,0,-0.1684,-0.1694,-0.1847,-0.1848,-0.1849,-0.186,-0.1818,-0.1903,-0.1848,-0.1842,-0.1848,-0.1848,-0.1917,-0.1921,-0.1916,-0.1965,-0.1968,-0.1946,-0.1948,-0.195,-0.1951,0,0,0,0,0,0,0,-0.168,-0.1692,-0.1849,-0.1848,-0.1849,-0.1788,-0.1797,-0.1832,-0.1877,-0.1843,-0.1843,-0.1854,-0.1917,-0.1912,-0.1918,-0.1969,-0.1946,-0.1949,-0.1951,-0.1953,-0.1967,-0.1965,0,0,0,0,0,0,-0.17,-0.169,-0.1849,-0.185,-0.1771,-0.1793,-0.1803,-0.1852,-0.1875,-0.188,-0.1855,-0.1854,-0.1906,-0.1914,-0.1921,-0.1933,-0.195,-0.1953,-0.1955,-0.1969,-0.1967,-0.1965,0,0,0,0,0,0,-0.1696,-0.1715,-0.1848,-0.1772,-0.1786,-0.1799,-0.1853,-0.1852,-0.1856,-0.1885,-0.1889,-0.1861,-0.1906,-0.1916,-0.1977,-0.1937,-0.1955,-0.1958,-0.1971,-0.1968,-0.1966,-0.1971,0,0,0,0,0,0,-0.169,-0.1715,-0.175,-0.1776,-0.1791,-0.1853,-0.1853,-0.1853,-0.1866,-0.1865,-0.1892,-0.1898,-0.1907,-0.1972,-0.198,-0.1942,-0.1961,-0.1973,-0.197,-0.1966,-0.1973,-0.1969,-0.1966,0,0,0,0,0,-0.1682,-0.1711,-0.1753,-0.1772,-0.1844,-0.1853,-0.1854,-0.1856,-0.1867,-0.186,-0.1904,-0.1898,-0.1954,-0.1977,-0.1986,-0.1947,-0.1974,-0.197,-0.1967,-0.1975,-0.197,-0.1966,0,0,0,0,0,0,-0.1613,-0.1714,-0.1759,-0.1816,-0.1841,-0.1852,-0.1831,-0.1864,-0.189,-0.1893,-0.1927,-0.1937,-0.1956,-0.1959,-0.1982,-0.1932,-0.1942,-0.194,-0.1944,-0.194,-0.1936,-0.1915,-0.1963,0,0,0,0,0,-0.1629,-0.1685,-0.1755,-0.1793,-0.1798,-0.1826,-0.1831,-0.1852,-0.1881,-0.1889,-0.1928,-0.1941,-0.1943,-0.1955,-0.1963,-0.1977,-0.1945,-0.1937,-0.1933,-0.193,-0.1914,-0.1859,-0.1849,-0.1952,-0.1952,-0.1952,0,0,-0.1608,-0.1671,-0.1702,-0.1783,-0.1785,-0.1815,-0.1824,-0.1829,-0.1871,-0.1899,-0.1951,-0.195,-0.1947,-0.1946,-0.1949,-0.195,-0.1881,-0.1926,-0.1924,-0.1909,-0.1854,-0.1844,-0.1835,-0.195,-0.195,-0.195,0,0,-0.1566,-0.1647,-0.1669,-0.17,-0.1743,-0.1784,-0.1797,-0.184,-0.1859,-0.1938,-0.1929,-0.1921,-0.1975,-0.1931,-0.1923,-0.1905,-0.187,-0.1882,-0.185,-0.1797,-0.1788,-0.178,-0.1722,-0.1709,-0.1874,-0.1874,-0.1874,0,-0.1548,-0.1597,-0.1663,-0.1683,-0.1701,-0.178,-0.1789,-0.1838,-0.1911,-0.1909,-0.1958,-0.1949,-0.1959,-0.1899,-0.1881,-0.1896,-0.1859,-0.1878,-0.1794,-0.1785,-0.1777,-0.1719,-0.1705,-0.1873,-0.1873,-0.1873,-0.1873,0,-0.151,-0.156,-0.1549,-0.1641,-0.1676,-0.1681,-0.1776,-0.1822,-0.189,-0.1924,-0.1913,-0.1932,-0.1905,-0.1887,-0.1896,-0.1801,-0.1791,-0.1806,-0.1813,-0.1767,-0.1709,-0.1693,-0.1873,-0.1873,-0.1873,-0.1873,0,0,-0.1462,-0.152,-0.1522,-0.1534,-0.165,-0.166,-0.1746,-0.1796,-0.1795,-0.1887,-0.1859,-0.1863,-0.1843,-0.1826,-0.1799,-0.1751,-0.1671,-0.175,-0.1747,-0.1704,-0.154,-0.1431,-0.1404,-0.1673,-0.1671,-0.1669,-0.1521,0,-0.141,-0.1403,-0.1483,-0.1503,-0.1497,-0.1609,-0.1664,-0.1732,-0.1792,-0.1799,-0.1807,-0.1781,-0.183,-0.1785,-0.1756,-0.1689,-0.163,-0.1708,-0.1578,-0.1573,-0.1493,-0.1382,-0.1336,-0.119,-0.1506,-0.1504,-0.1502,0,-0.1355,-0.1359,-0.1341,-0.1394,-0.1399,-0.145,-0.1501,-0.1566,-0.1617,-0.1644,-0.1647,-0.1668,-0.1619,-0.1669,-0.1573,-0.1621,-0.1572,-0.1534,-0.1528,-0.141,-0.1434,-0.1285,-0.1151,-0.1476,-0.1478,-0.148,-0.1482,0,-0.1232,-0.1269,-0.1239,-0.1258,-0.1343,-0.1355,-0.1416,-0.1484,-0.151,-0.1525,-0.1521,-0.151,-0.1484,-0.1458,-0.1439,-0.1491,-0.1317,-0.1384,-0.1235,-0.1228,-0.115,-0.1139,-0.1281,-0.1281,-0.1281,-0.1282,-0.1282,0,-0.1152,-0.1136,-0.1164,-0.1148,-0.1131,-0.1224,-0.1218,-0.128,-0.1325,-0.1333,-0.1408,-0.1395,-0.1428,-0.1378,-0.1373,-0.1242,-0.1272,-0.1184,-0.1162,-0.1148,-0.1138,-0.1367,-0.1379,-0.1276,-0.1277,-0.1279,-0.1279,0,-0.1052,-0.1061,-0.1038,-0.1067,-0.1076,-0.1067,-0.1145,-0.1145,-0.1186,-0.1203,-0.121,-0.127,-0.1207,-0.1205,-0.1121,-0.1115,-0.1023,-0.0962,-0.0936,-0.0912,-0.0992,-0.1006,-0.0786,-0.078,-0.0776,-0.0772,-0.0768,0,-0.0994,-0.0959,-0.0964,-0.0963,-0.0985,-0.0988,-0.1011,-0.1076,-0.1095,-0.114,-0.1141,-0.1086,-0.1076,-0.0904,-0.0842,-0.0741,-0.0837,-0.0628,-0.0711,-0.0929,-0.0932,-0.0953,-0.0973,-0.0619,-0.0615,-0.0612,-0.0609,0,-0.0905,-0.0908,-0.0903,-0.088,-0.0889,-0.0903,-0.0933,-0.0922,-0.101,-0.1008,-0.101,-0.0991,-0.0853,-0.0739,-0.0578,-0.0528,-0.0651,-0.0549,-0.0747,-0.0748,-0.0758,-0.0767,-0.0794,-0.0578,-0.0581,-0.0583,-0.0585,-0.0586,-0.0854,-0.0835,-0.082,-0.081,-0.0822,-0.0819,-0.0796,-0.0834,-0.083,-0.082,-0.0863,-0.0785,-0.0765,-0.0483,-0.0399,-0.0296,-0.0374,-0.0383,-0.04,-0.0419,-0.0422,-0.0422,-0.0179,-0.018,-0.0181,-0.0181,-0.0182,0,-0.0774,-0.0765,-0.0755,-0.0731,-0.0712,-0.0746,-0.0751,-0.0712,-0.0675,-0.0657,-0.0626,-0.0518,-0.0413,-0.0358,-0.0176,-0.012,-0.0169,-0.0086,-0.0213,-0.0241,-0.0267,-0.027,0.0017,0.0017,0.0018,0.0018,0,0,-0.0727,-0.069,-0.0685,-0.0616,-0.061,-0.0548,-0.0531,-0.0497,-0.0449,-0.0375,-0.0322,-0.0336,-0.0344,-0.0193,-0.0137,-0.004,-0.0127,0.0011,-0.0148,-0.0325,-0.0351,-0.0432,-0.0465,0,0,0,0,0]},{"header":{"parameterUnit":"m.s-1","parameterCategory":2,"la1":30.2991,"la2":30.254,"lo1":-89.0895,"lo2":-89.0444,"dy":0.0017,"dx":0.0017,"nx":28,"ny":28,"refTime":"2024-07-03T21:00:00:Z","depth":"2","parameterNumber":3,"parameterNumberName":"V-component_of_CURRENTS"},"data":[0,0,0,0,0,0,0,0,0,0,0,0,0,0,0,0,0,0,0,0,0,0,0,0,0,0,0,0,0,0,0,0,0,0,0,0,0,0,0,0,0,0,0,0,0,0,0,0,0,0,0,0,0,0,0,0,0,0,-0.0417,-0.0416,0,-0.0378,-0.0379,-0.0379,-0.0354,-0.0353,-0.0352,-0.035,-0.0045,-0.0038,-0.0031,0,0,0,0,0,0,0,0,0,0,0,0,0,-0.0531,-0.0529,-0.0417,-0.0416,-0.0414,-0.0378,-0.0379,-0.0379,-0.0354,-0.0353,-0.0351,-0.035,-0.0047,-0.0039,-0.003,0,0,0,0,0,0,0,0,0,0,0,0,0,-0.0495,-0.0529,-0.0417,-0.039,-0.0386,-0.0378,-0.0379,-0.0379,-0.0354,-0.0353,-0.0351,-0.0349,-0.005,-0.004,-0.0029,0.0003,0,0,0.0003,0.0008,0,0,0,0,0,0,0,0,-0.0497,-0.0493,-0.0395,-0.0391,-0.0387,-0.036,-0.0306,-0.0235,-0.0355,-0.0377,-0.035,-0.0348,-0.012,-0.0104,-0.0119,0.0017,0.003,0.0004,0.0011,0.0015,0.0018,0,0,0,0,0,0,0,-0.05,-0.0494,-0.0412,-0.0394,-0.0389,-0.0399,-0.0393,-0.0295,-0.0262,-0.0375,-0.0371,-0.035,-0.0117,-0.0129,-0.011,0.0035,0.0004,0.0013,0.002,0.0024,0.041,0.0414,0,0,0,0,0,0,-0.0482,-0.0496,-0.0413,-0.041,-0.0428,-0.0398,-0.0391,-0.0379,-0.0268,-0.0249,-0.0352,-0.0349,-0.0148,-0.0123,-0.0099,0.0057,0.0015,0.0025,0.0031,0.0407,0.0411,0.0415,0,0,0,0,0,0,-0.0485,-0.0476,-0.0415,-0.0444,-0.0435,-0.0396,-0.0383,-0.0379,-0.0374,-0.0252,-0.0229,-0.0348,-0.0146,-0.0114,0.0046,0.0066,0.003,0.004,0.0402,0.0408,0.0413,0.03,0,0,0,0,0,0,-0.0489,-0.0477,-0.0478,-0.0443,-0.0432,-0.0405,-0.0384,-0.0379,-0.036,-0.0356,-0.024,-0.0213,-0.0142,0.003,0.0057,0.008,0.0048,0.0397,0.0405,0.0411,0.0298,0.0301,0.0303,0,0,0,0,0,-0.0493,-0.05,-0.0478,-0.0468,-0.043,-0.0404,-0.0402,-0.0376,-0.0361,-0.0366,-0.0245,-0.0215,0.0096,0.0042,0.0072,0.0098,0.0393,0.0402,0.0411,0.0297,0.03,0.0303,0,0,0,0,0,0,-0.0548,-0.0495,-0.0472,-0.0461,-0.0428,-0.0396,-0.0398,-0.0375,-0.03,-0.0277,-0.0168,-0.013,0.0015,0.0094,0.0032,0.0243,0.0251,0.0266,0.0154,0.0158,0.016,0.0111,0.0057,0,0,0,0,0,-0.0558,-0.0549,-0.0495,-0.0485,-0.0471,-0.0435,-0.0424,-0.0399,-0.0321,-0.0293,-0.0202,-0.0069,0.0068,0.0142,0.026,0.037,0.0375,0.0417,0.0419,0.0419,0.0409,0.0435,0.0435,0.0444,0.0444,0.0444,0,0,-0.0575,-0.0542,-0.0538,-0.0496,-0.0474,-0.0458,-0.0428,-0.0406,-0.0366,-0.026,-0.0174,-0.0062,0.0105,0.0231,0.0303,0.0301,0.042,0.0431,0.0429,0.0419,0.0444,0.0441,0.0439,0.045,0.0449,0.0448,0,0,-0.0598,-0.0577,-0.0573,-0.0551,-0.0503,-0.0478,-0.0466,-0.0419,-0.0374,-0.0256,-0.0166,-0.0044,0.0158,0.0247,0.0336,0.0429,0.043,0.0485,0.0448,0.0472,0.0469,0.0466,0.0435,0.043,0.0483,0.0482,0.0482,0,-0.0615,-0.06,-0.0569,-0.0558,-0.0544,-0.0484,-0.048,-0.0423,-0.0323,-0.0272,-0.0218,0.0043,0.0163,0.031,0.0351,0.0422,0.0422,0.0405,0.0462,0.046,0.0459,0.0429,0.0425,0.0478,0.0479,0.0479,0.0479,0,-0.0625,-0.0619,-0.0618,-0.0581,-0.0571,-0.0555,-0.0476,-0.0438,-0.0358,-0.0285,-0.0123,0.0036,0.0182,0.0248,0.0342,0.0408,0.0402,0.0447,0.042,0.0449,0.0418,0.0415,0.0472,0.0473,0.0475,0.0476,0,0,-0.0635,-0.0626,-0.0623,-0.0617,-0.0583,-0.0566,-0.0514,-0.044,-0.0389,-0.0254,-0.0182,0.0051,0.0108,0.0213,0.0315,0.0352,0.0336,0.0392,0.0396,0.0298,0.0342,0.0325,0.032,0.0378,0.0378,0.0378,0.0306,0,-0.0643,-0.0642,-0.0637,-0.0633,-0.0628,-0.0592,-0.0547,-0.0472,-0.0374,-0.0288,-0.0121,0.0013,0.011,0.0179,0.0229,0.0335,0.0333,0.0348,0.0387,0.0387,0.0316,0.0319,0.0322,0.0259,0.0304,0.0304,0.0303,0,-0.0639,-0.0643,-0.0655,-0.0652,-0.0647,-0.0638,-0.0589,-0.0531,-0.0407,-0.033,-0.0212,-0.0083,0.0035,0.0102,0.0223,0.0227,0.0266,0.0322,0.0321,0.0342,0.0367,0.0257,0.0253,0.0299,0.03,0.03,0.03,0,-0.0644,-0.0648,-0.0661,-0.0661,-0.0649,-0.0647,-0.0625,-0.0541,-0.0483,-0.0369,-0.0315,-0.0166,-0.007,0.0011,0.0157,0.0182,0.0248,0.0293,0.0291,0.0288,0.0319,0.032,0.0318,0.0318,0.0318,0.0318,0.0318,0,-0.0643,-0.065,-0.0662,-0.0666,-0.0668,-0.0657,-0.063,-0.059,-0.0523,-0.0456,-0.0332,-0.0255,-0.0084,0.0005,0.0098,0.0185,0.0194,0.0266,0.0275,0.0282,0.028,0.036,0.0366,0.0316,0.0316,0.0317,0.0317,0,-0.0644,-0.0649,-0.0661,-0.067,-0.0671,-0.0666,-0.0653,-0.0622,-0.0565,-0.0494,-0.0459,-0.0322,-0.0206,-0.0072,0.0053,0.0114,0.0193,0.0205,0.0174,0.0182,0.0215,0.0217,0.018,0.0179,0.0178,0.0177,0.0177,0,-0.0649,-0.0658,-0.0671,-0.0678,-0.0686,-0.0681,-0.0677,-0.0642,-0.0613,-0.0518,-0.0483,-0.0366,-0.0255,-0.0109,0.0017,0.0112,0.0149,0.0133,0.0197,0.0191,0.0204,0.0208,0.0211,0.0176,0.0175,0.0175,0.0174,0,-0.0672,-0.0671,-0.068,-0.0699,-0.0705,-0.0704,-0.0696,-0.0683,-0.0628,-0.0574,-0.0492,-0.0407,-0.0253,-0.0105,0.0004,0.0061,0.0126,0.0124,0.0138,0.0218,0.0184,0.0198,0.0202,0.017,0.017,0.0171,0.0171,0.0171,-0.0692,-0.0698,-0.0711,-0.0719,-0.0725,-0.0724,-0.0715,-0.0691,-0.065,-0.0541,-0.0497,-0.0343,-0.0239,-0.0028,0.0035,0.0094,0.0101,0.0128,0.013,0.0134,0.0154,0.0122,0.0095,0.0095,0.0095,0.0095,0.0095,0,-0.0724,-0.0725,-0.0738,-0.0743,-0.0745,-0.0748,-0.0727,-0.0692,-0.0637,-0.051,-0.0417,-0.0259,-0.0124,-0.0009,0.0094,0.0126,0.0138,0.0117,0.015,0.0152,0.0155,0.0179,0.0126,0.0126,0.0127,0.0127,0,0,-0.0743,-0.0754,-0.075,-0.076,-0.0764,-0.0755,-0.0739,-0.0668,-0.0569,-0.0415,-0.0284,-0.0173,-0.0061,0.0018,0.0058,0.0113,0.0118,0.0101,0.007,0.0104,0.0107,0.015,0.0188,0,0,0,0,0]}],[{"header":{"parameterUnit":"m.s-1","parameterCategory":2,"la1":30.2991,"la2":30.254,"lo1":-89.0895,"lo2":-89.0444,"dy":0.0017,"dx":0.0017,"nx":28,"ny":28,"refTime":"2024-07-03T21:00:00:Z","depth":"4","parameterNumber":2,"parameterNumberName":"U-component_of_CURRENTS"},"data":[0,0,0,0,0,0,0,0,0,0,0,0,0,0,0,0,0,0,0,0,0,0,0,0,0,0,0,0,0,0,0,0,0,0,0,0,0,0,0,0,0,0,0,0,0,0,0,0,0,0,0,0,0,0,0,0,0,0,-0.0858,-0.0857,0,-0.0834,-0.0834,-0.0833,-0.0828,-0.0829,-0.0829,-0.0829,-0.0865,-0.0865,-0.0866,0,0,0,0,0,0,0,0,0,0,0,0,0,-0.0871,-0.0871,-0.0858,-0.0857,-0.0857,-0.0834,-0.0834,-0.0833,-0.0828,-0.0829,-0.0829,-0.0829,-0.0864,-0.0865,-0.0866,0,0,0,0,0,0,0,0,0,0,0,0,0,-0.0857,-0.087,-0.0858,-0.0853,-0.0852,-0.0834,-0.0834,-0.0833,-0.0828,-0.0829,-0.0829,-0.083,-0.0864,-0.0865,-0.0866,-0.0863,0,0,-0.0869,-0.087,0,0,0,0,0,0,0,0,-0.0858,-0.0856,-0.0854,-0.0853,-0.0853,-0.0836,-0.0851,-0.0846,-0.0828,-0.0836,-0.0829,-0.083,-0.0861,-0.0862,-0.0854,-0.0865,-0.0866,-0.0869,-0.087,-0.087,-0.087,0,0,0,0,0,0,0,-0.0859,-0.0857,-0.0847,-0.0854,-0.0853,-0.0843,-0.0841,-0.085,-0.0846,-0.0835,-0.0835,-0.0835,-0.0861,-0.0853,-0.0855,-0.0867,-0.0869,-0.087,-0.0871,-0.0871,-0.0937,-0.0938,0,0,0,0,0,0,-0.0865,-0.0858,-0.0848,-0.0846,-0.0858,-0.0842,-0.0841,-0.084,-0.0845,-0.0846,-0.0834,-0.0835,-0.0851,-0.0854,-0.0856,-0.0887,-0.087,-0.0871,-0.0872,-0.0936,-0.0937,-0.0939,0,0,0,0,0,0,-0.0865,-0.0864,-0.0849,-0.0853,-0.085,-0.0842,-0.0841,-0.0839,-0.0844,-0.0844,-0.0846,-0.0842,-0.0852,-0.0855,-0.0863,-0.0888,-0.0872,-0.0872,-0.0935,-0.0936,-0.0938,-0.0928,0,0,0,0,0,0,-0.0866,-0.0864,-0.087,-0.0853,-0.085,-0.0834,-0.084,-0.0838,-0.0842,-0.0843,-0.0851,-0.0854,-0.0852,-0.0861,-0.0864,-0.0889,-0.0873,-0.0933,-0.0935,-0.0937,-0.0927,-0.0929,-0.0931,0,0,0,0,0,-0.0866,-0.0858,-0.0871,-0.087,-0.0857,-0.0834,-0.0831,-0.0826,-0.0843,-0.0834,-0.0843,-0.0854,-0.0878,-0.0861,-0.0865,-0.0891,-0.0932,-0.0935,-0.0937,-0.0926,-0.0929,-0.0931,0,0,0,0,0,0,-0.0862,-0.0856,-0.087,-0.0861,-0.0853,-0.0833,-0.0827,-0.0834,-0.0834,-0.0847,-0.0851,-0.0853,-0.0873,-0.0885,-0.0867,-0.092,-0.0915,-0.0918,-0.0906,-0.0908,-0.0911,-0.0876,-0.0874,0,0,0,0,0,-0.0868,-0.0861,-0.0857,-0.085,-0.085,-0.0848,-0.0843,-0.0845,-0.0841,-0.0842,-0.0847,-0.0868,-0.0885,-0.0897,-0.0906,-0.0927,-0.0917,-0.0954,-0.0956,-0.0958,-0.0934,-0.0944,-0.0944,-0.0947,-0.0947,-0.0947,0,0,-0.0867,-0.086,-0.086,-0.085,-0.0847,-0.0843,-0.0845,-0.0841,-0.0844,-0.0848,-0.0855,-0.0868,-0.089,-0.0908,-0.0922,-0.0923,-0.0953,-0.0961,-0.0962,-0.0936,-0.0947,-0.0946,-0.0945,-0.0949,-0.0949,-0.0948,0,0,-0.085,-0.0857,-0.0849,-0.0845,-0.0844,-0.0843,-0.0848,-0.0842,-0.0847,-0.0856,-0.0867,-0.0881,-0.0911,-0.0917,-0.0931,-0.0954,-0.0959,-0.0985,-0.097,-0.0982,-0.098,-0.0979,-0.0963,-0.0961,-0.0992,-0.0992,-0.0992,0,-0.0857,-0.0842,-0.0842,-0.0834,-0.0831,-0.0847,-0.0843,-0.0848,-0.0847,-0.0846,-0.0862,-0.089,-0.0911,-0.0926,-0.0936,-0.0956,-0.0955,-0.0955,-0.0981,-0.098,-0.0978,-0.0963,-0.096,-0.0992,-0.0992,-0.0992,-0.0992,0,-0.0831,-0.083,-0.0821,-0.0823,-0.082,-0.0813,-0.0827,-0.0832,-0.0854,-0.0857,-0.0872,-0.0888,-0.0899,-0.093,-0.0938,-0.0953,-0.0951,-0.0975,-0.0965,-0.0977,-0.0961,-0.0958,-0.0992,-0.0992,-0.0992,-0.0992,0,0,-0.0824,-0.0809,-0.0809,-0.0807,-0.0815,-0.0805,-0.0819,-0.082,-0.0824,-0.0844,-0.0842,-0.0875,-0.0879,-0.0893,-0.0916,-0.093,-0.0928,-0.095,-0.095,-0.0916,-0.0934,-0.0832,-0.0819,-0.0962,-0.0962,-0.0961,-0.0923,0,-0.0809,-0.0781,-0.0785,-0.0776,-0.0765,-0.0786,-0.0789,-0.0799,-0.0814,-0.0816,-0.0844,-0.0857,-0.0872,-0.0886,-0.0896,-0.0923,-0.0921,-0.0934,-0.0941,-0.094,-0.0835,-0.0812,-0.096,-0.0921,-0.0921,-0.092,-0.092,0,-0.0784,-0.0767,-0.0746,-0.0741,-0.0741,-0.0746,-0.0747,-0.0755,-0.077,-0.0784,-0.0794,-0.0816,-0.0829,-0.0855,-0.0867,-0.0878,-0.0891,-0.0911,-0.0911,-0.0808,-0.0833,-0.0911,-0.0915,-0.0915,-0.0915,-0.0916,-0.0916,0,-0.075,-0.0741,-0.0718,-0.0716,-0.0717,-0.072,-0.0729,-0.074,-0.0751,-0.0764,-0.0776,-0.0784,-0.0805,-0.0819,-0.0837,-0.0864,-0.0845,-0.0895,-0.0805,-0.0798,-0.0906,-0.0908,-0.0889,-0.0889,-0.0889,-0.0889,-0.0889,0,-0.0712,-0.0701,-0.0702,-0.0687,-0.0679,-0.0692,-0.0694,-0.0701,-0.0724,-0.073,-0.0755,-0.076,-0.0802,-0.0799,-0.0816,-0.0771,-0.0822,-0.0769,-0.0773,-0.0905,-0.0907,-0.0904,-0.0906,-0.0887,-0.0888,-0.0888,-0.0888,0,-0.067,-0.0668,-0.0652,-0.0654,-0.066,-0.0654,-0.0689,-0.069,-0.0711,-0.0722,-0.0732,-0.0752,-0.0735,-0.0738,-0.0757,-0.0734,-0.0717,-0.0691,-0.079,-0.0806,-0.0671,-0.0674,-0.0591,-0.0587,-0.0584,-0.0581,-0.0578,0,-0.0635,-0.0618,-0.0626,-0.0627,-0.0631,-0.064,-0.065,-0.0681,-0.0689,-0.0711,-0.0711,-0.0702,-0.0703,-0.0623,-0.0643,-0.0607,-0.0614,-0.0591,-0.0654,-0.0624,-0.0637,-0.0646,-0.0653,-0.0573,-0.0572,-0.0571,-0.057,0,-0.0578,-0.0591,-0.0583,-0.058,-0.0591,-0.0603,-0.062,-0.0624,-0.0654,-0.0691,-0.0664,-0.0636,-0.0596,-0.0575,-0.0522,-0.0519,-0.0598,-0.0555,-0.0564,-0.0624,-0.0601,-0.0619,-0.0631,-0.0558,-0.056,-0.0561,-0.0562,0,-0.0547,-0.0536,-0.053,-0.0526,-0.0542,-0.0537,-0.0562,-0.0566,-0.0579,-0.061,-0.0602,-0.0583,-0.0601,-0.0527,-0.0494,-0.0447,-0.0465,-0.0469,-0.0483,-0.0497,-0.0478,-0.0436,-0.0317,0,0,0,0,0,-0.0504,-0.0483,-0.0474,-0.046,-0.0477,-0.0479,-0.0523,-0.0553,-0.0596,-0.0559,-0.0577,-0.0537,-0.0471,-0.0467,-0.0398,-0.0442,-0.0458,-0.0359,-0.047,-0.0491,-0.0505,-0.0489,0,0,0,0,0,0,-0.0471,-0.0462,-0.045,-0.0403,-0.0382,-0.0388,-0.0412,-0.0448,-0.0436,-0.0484,-0.0454,-0.0485,-0.0432,-0.0487,-0.0378,-0.0372,-0.0426,-0.0354,-0.0352,-0.0483,-0.0496,-0.0507,-0.0496,0,0,0,0,0]},{"header":{"parameterUnit":"m.s-1","parameterCategory":2,"la1":30.2991,"la2":30.254,"lo1":-89.0895,"lo2":-89.0444,"dy":0.0017,"dx":0.0017,"nx":28,"ny":28,"refTime":"2024-07-03T21:00:00:Z","depth":"4","parameterNumber":3,"parameterNumberName":"V-component_of_CURRENTS"},"data":[0,0,0,0,0,0,0,0,0,0,0,0,0,0,0,0,0,0,0,0,0,0,0,0,0,0,0,0,0,0,0,0,0,0,0,0,0,0,0,0,0,0,0,0,0,0,0,0,0,0,0,0,0,0,0,0,0,0,-0.0386,-0.0386,0,-0.0419,-0.042,-0.042,-0.0449,-0.0449,-0.0449,-0.0449,-0.0455,-0.0455,-0.0455,0,0,0,0,0,0,0,0,0,0,0,0,0,-0.0375,-0.0375,-0.0386,-0.0386,-0.0387,-0.0419,-0.042,-0.042,-0.0449,-0.0449,-0.0449,-0.0449,-0.0455,-0.0455,-0.0455,0,0,0,0,0,0,0,0,0,0,0,0,0,-0.0393,-0.0375,-0.0386,-0.0404,-0.0405,-0.0419,-0.042,-0.042,-0.0449,-0.0449,-0.0449,-0.0449,-0.0455,-0.0455,-0.0455,-0.045,0,0,-0.0455,-0.0455,0,0,0,0,0,0,0,0,-0.0392,-0.0393,-0.0401,-0.0402,-0.0404,-0.0429,-0.0418,-0.0428,-0.0449,-0.0434,-0.0449,-0.045,-0.0443,-0.0444,-0.0452,-0.045,-0.0451,-0.0455,-0.0455,-0.0455,-0.0455,0,0,0,0,0,0,0,-0.039,-0.0392,-0.0401,-0.0401,-0.0403,-0.0419,-0.0422,-0.042,-0.0437,-0.0435,-0.0437,-0.0438,-0.0444,-0.0452,-0.0452,-0.0451,-0.0455,-0.0455,-0.0455,-0.0455,-0.0454,-0.0454,0,0,0,0,0,0,-0.0381,-0.0391,-0.04,-0.0402,-0.0397,-0.0419,-0.0422,-0.0422,-0.0438,-0.044,-0.0438,-0.0439,-0.0452,-0.0452,-0.0453,-0.0482,-0.0455,-0.0455,-0.0455,-0.0454,-0.0454,-0.0454,0,0,0,0,0,0,-0.0381,-0.0382,-0.0398,-0.0396,-0.0399,-0.0418,-0.0418,-0.0422,-0.0439,-0.044,-0.0442,-0.045,-0.0452,-0.0453,-0.0477,-0.0481,-0.0455,-0.0455,-0.0454,-0.0454,-0.0454,-0.0519,0,0,0,0,0,0,-0.038,-0.0381,-0.0387,-0.0395,-0.0399,-0.0417,-0.0418,-0.0423,-0.0438,-0.044,-0.0451,-0.0452,-0.0452,-0.0477,-0.0477,-0.0481,-0.0455,-0.0454,-0.0454,-0.0454,-0.0517,-0.0521,-0.0524,0,0,0,0,0,-0.038,-0.0391,-0.0387,-0.0388,-0.0403,-0.0417,-0.0421,-0.0437,-0.0438,-0.0451,-0.0468,-0.0452,-0.0475,-0.0478,-0.0478,-0.0482,-0.0454,-0.0454,-0.0454,-0.0515,-0.052,-0.0524,0,0,0,0,0,0,-0.0394,-0.0395,-0.0391,-0.0402,-0.041,-0.0421,-0.0435,-0.044,-0.0463,-0.0466,-0.0468,-0.0471,-0.049,-0.0473,-0.0476,-0.0476,-0.0454,-0.0454,-0.0501,-0.0505,-0.0509,-0.0523,-0.0455,0,0,0,0,0,-0.0396,-0.0403,-0.0404,-0.0414,-0.0415,-0.0423,-0.0433,-0.044,-0.0455,-0.0466,-0.0476,-0.0477,-0.0486,-0.0489,-0.0492,-0.0499,-0.0471,-0.0492,-0.0496,-0.05,-0.0508,-0.0505,-0.051,-0.0453,-0.0453,-0.0453,0,0,-0.0406,-0.0405,-0.0411,-0.0417,-0.0422,-0.0435,-0.0431,-0.0445,-0.0466,-0.0461,-0.0497,-0.0498,-0.0493,-0.051,-0.0513,-0.0498,-0.0491,-0.05,-0.0504,-0.051,-0.0505,-0.0511,-0.0516,-0.0453,-0.0453,-0.0453,0,0,-0.0424,-0.0424,-0.0433,-0.0438,-0.0443,-0.045,-0.0454,-0.0467,-0.0484,-0.0515,-0.0514,-0.0532,-0.0536,-0.0545,-0.0545,-0.0569,-0.0518,-0.0545,-0.0575,-0.0572,-0.0577,-0.0581,-0.0514,-0.0512,-0.0541,-0.0541,-0.0541,0,-0.0433,-0.0442,-0.044,-0.0448,-0.0458,-0.0457,-0.0473,-0.0491,-0.0515,-0.0531,-0.0533,-0.0557,-0.056,-0.058,-0.0592,-0.0582,-0.0543,-0.0564,-0.058,-0.0584,-0.0587,-0.0517,-0.0514,-0.0544,-0.0544,-0.0544,-0.0543,0,-0.0454,-0.0463,-0.047,-0.0478,-0.0492,-0.0505,-0.052,-0.0541,-0.0557,-0.0573,-0.0604,-0.0617,-0.0626,-0.0623,-0.0623,-0.0637,-0.0586,-0.0593,-0.0575,-0.0597,-0.0521,-0.0517,-0.0549,-0.0548,-0.0547,-0.0546,0,0,-0.0463,-0.0481,-0.0482,-0.0492,-0.0508,-0.0521,-0.0555,-0.0585,-0.0606,-0.0634,-0.0657,-0.0693,-0.0686,-0.0686,-0.0674,-0.0678,-0.0667,-0.0645,-0.0644,-0.0589,-0.0603,-0.0544,-0.0533,-0.0676,-0.0676,-0.0677,-0.0526,0,-0.0476,-0.0499,-0.0508,-0.0538,-0.0551,-0.0565,-0.0597,-0.0625,-0.0648,-0.0669,-0.0686,-0.0699,-0.071,-0.0704,-0.0718,-0.0681,-0.0664,-0.0703,-0.058,-0.0575,-0.0531,-0.0531,-0.0679,-0.0522,-0.0521,-0.052,-0.052,0,-0.0486,-0.0503,-0.0533,-0.0565,-0.0572,-0.0595,-0.0636,-0.0663,-0.0692,-0.0705,-0.0724,-0.0718,-0.0725,-0.0729,-0.0693,-0.0711,-0.0665,-0.0636,-0.063,-0.0556,-0.0511,-0.0502,-0.0512,-0.0512,-0.0513,-0.0514,-0.0514,0,-0.0488,-0.0518,-0.0546,-0.0556,-0.0594,-0.0618,-0.0642,-0.0677,-0.0692,-0.0713,-0.0704,-0.0724,-0.0699,-0.0688,-0.0631,-0.0657,-0.0564,-0.0589,-0.0483,-0.0475,-0.0545,-0.0542,-0.0562,-0.0562,-0.0563,-0.0563,-0.0564,0,-0.0491,-0.0513,-0.055,-0.0565,-0.06,-0.0626,-0.0658,-0.0683,-0.0699,-0.0697,-0.0713,-0.069,-0.0691,-0.0635,-0.0609,-0.0514,-0.054,-0.0481,-0.0446,-0.0566,-0.0569,-0.0539,-0.0538,-0.0557,-0.0559,-0.056,-0.0561,0,-0.0483,-0.0506,-0.0538,-0.0585,-0.0599,-0.0624,-0.0654,-0.067,-0.0683,-0.0671,-0.0665,-0.0644,-0.0569,-0.0532,-0.047,-0.0453,-0.039,-0.0343,-0.0415,-0.0387,-0.0301,-0.0305,-0.0222,-0.0219,-0.0216,-0.0214,-0.0212,0,-0.0484,-0.0501,-0.0547,-0.0563,-0.0585,-0.0618,-0.0636,-0.0662,-0.0661,-0.0633,-0.0612,-0.0535,-0.051,-0.0354,-0.0347,-0.0255,-0.026,-0.0211,-0.033,-0.0299,-0.0273,-0.0281,-0.0289,-0.0208,-0.0208,-0.0207,-0.0206,0,-0.0491,-0.0506,-0.0528,-0.0559,-0.0581,-0.06,-0.0619,-0.0607,-0.0613,-0.0615,-0.0533,-0.0471,-0.0365,-0.031,-0.0213,-0.0172,-0.0254,-0.0185,-0.0192,-0.0304,-0.0281,-0.026,-0.027,-0.0197,-0.0199,-0.0199,-0.02,0,-0.0495,-0.0505,-0.0532,-0.0551,-0.0574,-0.0577,-0.0587,-0.0564,-0.0556,-0.0517,-0.0481,-0.04,-0.0361,-0.026,-0.0189,-0.0124,-0.0143,-0.0161,-0.017,-0.018,-0.024,-0.021,-0.0068,0,0,0,0,0,-0.0505,-0.0508,-0.0526,-0.0541,-0.0558,-0.0574,-0.0576,-0.0577,-0.0561,-0.049,-0.0484,-0.0386,-0.0271,-0.0233,-0.0154,-0.0172,-0.0149,-0.0081,-0.0179,-0.0148,-0.0159,-0.0236,0,0,0,0,0,0,-0.0511,-0.0527,-0.0522,-0.0527,-0.0535,-0.0552,-0.0552,-0.0541,-0.0497,-0.0471,-0.0402,-0.0376,-0.0263,-0.0306,-0.0154,-0.0138,-0.0192,-0.0033,-0.0031,-0.0143,-0.0152,-0.016,-0.0243,0,0,0,0,0]}]]